Time,TemperatureF,DewpointF,PressureIn,WindDirection,WindDirectionDegrees,WindSpeedMPH,WindSpeedGustMPH,Humidity,HourlyPrecipIn,Conditions,Clouds,dailyrainin,SoftwareType,DateUTC
2013-01-01 00:02:00,9.7,-2.9,30.22,North,-999,-999.0,-999.0,56,0.00,,,0.00,meteohub,2013-01-01 06:02:00,
2013-01-01 00:07:00,9.7,-2.9,30.22,North,-999,-999.0,-999.0,56,0.00,,,0.00,meteohub,2013-01-01 06:07:00,
2013-01-01 00:12:00,9.7,-2.9,30.21,North,-999,-999.0,-999.0,56,0.00,,,0.00,meteohub,2013-01-01 06:12:00,
2013-01-01 00:17:00,9.7,-2.9,30.22,North,-999,-999.0,-999.0,56,0.00,,,0.00,meteohub,2013-01-01 06:17:00,
2013-01-01 00:22:00,9.7,-2.9,30.22,North,-999,-999.0,-999.0,56,0.00,,,0.00,meteohub,2013-01-01 06:22:00,
2013-01-01 00:27:00,9.7,-2.9,30.22,North,-999,-999.0,-999.0,56,0.00,,,0.00,meteohub,2013-01-01 06:27:00,
2013-01-01 00:32:00,9.9,-2.7,30.22,North,-999,-999.0,-999.0,56,0.00,,,0.00,meteohub,2013-01-01 06:32:00,
2013-01-01 00:42:00,9.7,-3.3,30.22,North,-999,-999.0,-999.0,55,0.00,,,0.00,meteohub,2013-01-01 06:42:00,
2013-01-01 00:47:00,9.5,-3.5,30.22,North,-999,-999.0,-999.0,55,0.00,,,0.00,meteohub,2013-01-01 06:47:00,
2013-01-01 00:52:00,9.5,-3.5,30.22,North,-999,-999.0,-999.0,55,0.00,,,0.00,meteohub,2013-01-01 06:52:00,
2013-01-01 00:57:00,9.5,-3.5,30.22,North,-999,-999.0,-999.0,55,0.00,,,0.00,meteohub,2013-01-01 06:57:00,
2013-01-01 01:02:00,9.5,-3.5,30.22,North,-999,-999.0,-999.0,55,0.00,,,0.00,meteohub,2013-01-01 07:02:00,
2013-01-01 01:07:00,9.3,-3.6,30.22,North,-999,-999.0,-999.0,55,0.00,,,0.00,meteohub,2013-01-01 07:07:00,
2013-01-01 01:12:00,9.3,-3.6,30.22,North,-999,-999.0,-999.0,55,0.00,,,0.00,meteohub,2013-01-01 07:12:00,
2013-01-01 01:17:00,9.1,-3.8,30.22,North,-999,-999.0,-999.0,55,0.00,,,0.00,meteohub,2013-01-01 07:17:00,
2013-01-01 01:22:00,9.1,-3.8,30.22,North,-999,-999.0,-999.0,55,0.00,,,0.00,meteohub,2013-01-01 07:22:00,
2013-01-01 01:27:00,9.0,-4.0,30.22,North,-999,-999.0,-999.0,55,0.00,,,0.00,meteohub,2013-01-01 07:27:00,
2013-01-01 01:32:00,8.8,-4.0,30.22,North,-999,-999.0,-999.0,55,0.00,,,0.00,meteohub,2013-01-01 07:32:00,
2013-01-01 01:37:00,8.6,-4.2,30.22,North,-999,-999.0,-999.0,55,0.00,,,0.00,meteohub,2013-01-01 07:37:00,
2013-01-01 01:42:00,8.4,-4.0,30.22,North,-999,-999.0,-999.0,56,0.00,,,0.00,meteohub,2013-01-01 07:42:00,
2013-01-01 01:47:00,8.4,-3.6,30.23,North,-999,-999.0,-999.0,57,0.00,,,0.00,meteohub,2013-01-01 07:47:00,
2013-01-01 01:52:00,8.2,-3.8,30.23,North,-999,-999.0,-999.0,57,0.00,,,0.00,meteohub,2013-01-01 07:52:00,
2013-01-01 01:57:00,8.2,-3.8,30.23,North,-999,-999.0,-999.0,57,0.00,,,0.00,meteohub,2013-01-01 07:57:00,
2013-01-01 02:02:00,8.1,-4.0,30.23,North,-999,-999.0,-999.0,57,0.00,,,0.00,meteohub,2013-01-01 08:02:00,
2013-01-01 02:07:00,7.9,-4.2,30.23,North,-999,-999.0,-999.0,57,0.00,,,0.00,meteohub,2013-01-01 08:07:00,
2013-01-01 02:12:00,7.7,-4.4,30.24,North,-999,-999.0,-999.0,57,0.00,,,0.00,meteohub,2013-01-01 08:12:00,
2013-01-01 02:17:00,7.5,-4.5,30.24,North,-999,-999.0,-999.0,57,0.00,,,0.00,meteohub,2013-01-01 08:17:00,
2013-01-01 02:22:00,7.3,-4.7,30.24,North,-999,-999.0,-999.0,57,0.00,,,0.00,meteohub,2013-01-01 08:22:00,
2013-01-01 02:27:00,7.3,-4.4,30.24,North,-999,-999.0,-999.0,58,0.00,,,0.00,meteohub,2013-01-01 08:27:00,
2013-01-01 02:32:00,7.2,-4.5,30.24,North,-999,-999.0,-999.0,58,0.00,,,0.00,meteohub,2013-01-01 08:32:00,
2013-01-01 02:37:00,7.0,-4.7,30.24,North,-999,-999.0,-999.0,58,0.00,,,0.00,meteohub,2013-01-01 08:37:00,
2013-01-01 02:42:00,7.0,-4.7,30.24,North,-999,-999.0,-999.0,58,0.00,,,0.00,meteohub,2013-01-01 08:42:00,
2013-01-01 02:47:00,7.0,-4.4,30.24,North,-999,-999.0,-999.0,59,0.00,,,0.00,meteohub,2013-01-01 08:47:00,
2013-01-01 02:52:00,7.0,-4.4,30.24,North,-999,-999.0,-999.0,59,0.00,,,0.00,meteohub,2013-01-01 08:52:00,
2013-01-01 02:57:00,6.8,-4.5,30.23,North,-999,-999.0,-999.0,59,0.00,,,0.00,meteohub,2013-01-01 08:57:00,
2013-01-01 03:02:00,6.8,-4.5,30.24,North,-999,-999.0,-999.0,59,0.00,,,0.00,meteohub,2013-01-01 09:02:00,
2013-01-01 03:07:00,6.8,-4.5,30.24,North,-999,-999.0,-999.0,59,0.00,,,0.00,meteohub,2013-01-01 09:07:00,
2013-01-01 03:12:00,6.6,-4.4,30.24,North,-999,-999.0,-999.0,60,0.00,,,0.00,meteohub,2013-01-01 09:12:00,
2013-01-01 03:17:00,6.8,-4.5,30.24,North,-999,-999.0,-999.0,59,0.00,,,0.00,meteohub,2013-01-01 09:17:00,
2013-01-01 03:22:00,6.6,-4.4,30.25,North,-999,-999.0,-999.0,60,0.00,,,0.00,meteohub,2013-01-01 09:22:00,
2013-01-01 03:27:00,6.4,-4.5,30.25,North,-999,-999.0,-999.0,60,0.00,,,0.00,meteohub,2013-01-01 09:27:00,
2013-01-01 03:32:00,6.3,-4.7,30.24,North,-999,-999.0,-999.0,60,0.00,,,0.00,meteohub,2013-01-01 09:32:00,
2013-01-01 03:37:00,6.3,-4.7,30.24,North,-999,-999.0,-999.0,60,0.00,,,0.00,meteohub,2013-01-01 09:37:00,
2013-01-01 03:42:00,6.3,-4.7,30.25,North,-999,-999.0,-999.0,60,0.00,,,0.00,meteohub,2013-01-01 09:42:00,
2013-01-01 03:52:00,6.3,-4.7,30.24,North,-999,-999.0,-999.0,60,0.00,,,0.00,meteohub,2013-01-01 09:52:00,
2013-01-01 04:02:00,6.1,-4.9,30.25,North,-999,-999.0,-999.0,60,0.00,,,0.00,meteohub,2013-01-01 10:02:00,
2013-01-01 04:07:00,5.9,-5.1,30.25,North,-999,-999.0,-999.0,60,0.00,,,0.00,meteohub,2013-01-01 10:07:00,
2013-01-01 04:12:00,5.7,-5.1,30.25,North,-999,-999.0,-999.0,60,0.00,,,0.00,meteohub,2013-01-01 10:12:00,
2013-01-01 04:17:00,5.7,-5.1,30.25,North,-999,-999.0,-999.0,60,0.00,,,0.00,meteohub,2013-01-01 10:17:00,
2013-01-01 04:22:00,5.7,-5.1,30.24,North,-999,-999.0,-999.0,60,0.00,,,0.00,meteohub,2013-01-01 10:22:00,
2013-01-01 04:27:00,5.4,-5.4,30.25,North,-999,-999.0,-999.0,60,0.00,,,0.00,meteohub,2013-01-01 10:27:00,
2013-01-01 04:32:00,5.4,-5.4,30.25,North,-999,-999.0,-999.0,60,0.00,,,0.00,meteohub,2013-01-01 10:32:00,
2013-01-01 04:42:00,5.2,-5.6,30.25,North,-999,-999.0,-999.0,60,0.00,,,0.00,meteohub,2013-01-01 10:42:00,
2013-01-01 04:47:00,5.0,-5.8,30.24,North,-999,-999.0,-999.0,60,0.00,,,0.00,meteohub,2013-01-01 10:47:00,
2013-01-01 04:52:00,5.0,-5.8,30.25,North,-999,-999.0,-999.0,60,0.00,,,0.00,meteohub,2013-01-01 10:52:00,
2013-01-01 04:57:00,4.8,-5.6,30.25,North,-999,-999.0,-999.0,61,0.00,,,0.00,meteohub,2013-01-01 10:57:00,
2013-01-01 05:02:00,4.6,-5.8,30.26,North,-999,-999.0,-999.0,61,0.00,,,0.00,meteohub,2013-01-01 11:02:00,
2013-01-01 05:07:00,4.6,-5.8,30.26,North,-999,-999.0,-999.0,61,0.00,,,0.00,meteohub,2013-01-01 11:07:00,
2013-01-01 05:12:00,4.5,-6.0,30.26,North,-999,-999.0,-999.0,61,0.00,,,0.00,meteohub,2013-01-01 11:12:00,
2013-01-01 05:17:00,4.5,-6.0,30.26,North,-999,-999.0,-999.0,61,0.00,,,0.00,meteohub,2013-01-01 11:17:00,
2013-01-01 05:22:00,4.3,-6.2,30.27,North,-999,-999.0,-999.0,61,0.00,,,0.00,meteohub,2013-01-01 11:22:00,
2013-01-01 05:27:00,4.3,-6.2,30.27,North,-999,-999.0,-999.0,61,0.00,,,0.00,meteohub,2013-01-01 11:27:00,
2013-01-01 05:32:00,4.3,-6.2,30.27,North,-999,-999.0,-999.0,61,0.00,,,0.00,meteohub,2013-01-01 11:32:00,
2013-01-01 05:37:00,4.1,-6.3,30.27,North,-999,-999.0,-999.0,61,0.00,,,0.00,meteohub,2013-01-01 11:37:00,
2013-01-01 05:42:00,4.1,-6.0,30.27,North,-999,-999.0,-999.0,62,0.00,,,0.00,meteohub,2013-01-01 11:42:00,
2013-01-01 05:47:00,4.1,-6.3,30.27,North,-999,-999.0,-999.0,61,0.00,,,0.00,meteohub,2013-01-01 11:47:00,
2013-01-01 05:52:00,4.1,-6.3,30.28,North,-999,-999.0,-999.0,61,0.00,,,0.00,meteohub,2013-01-01 11:52:00,
2013-01-01 05:57:00,3.9,-6.5,30.28,North,-999,-999.0,-999.0,61,0.00,,,0.00,meteohub,2013-01-01 11:57:00,
2013-01-01 06:02:00,3.9,-6.5,30.28,North,-999,-999.0,-999.0,61,0.00,,,0.00,meteohub,2013-01-01 12:02:00,
2013-01-01 06:07:00,3.7,-6.7,30.28,North,-999,-999.0,-999.0,61,0.00,,,0.00,meteohub,2013-01-01 12:07:00,
2013-01-01 06:17:00,3.4,-7.1,30.28,North,-999,-999.0,-999.0,61,0.00,,,0.00,meteohub,2013-01-01 12:17:00,
2013-01-01 06:22:00,3.2,-7.2,30.28,North,-999,-999.0,-999.0,61,0.00,,,0.00,meteohub,2013-01-01 12:22:00,
2013-01-01 06:27:00,3.2,-7.2,30.29,North,-999,-999.0,-999.0,61,0.00,,,0.00,meteohub,2013-01-01 12:27:00,
2013-01-01 06:37:00,3.0,-7.1,30.29,North,-999,-999.0,-999.0,62,0.00,,,0.00,meteohub,2013-01-01 12:37:00,
2013-01-01 06:42:00,3.0,-7.1,30.30,North,-999,-999.0,-999.0,62,0.00,,,0.00,meteohub,2013-01-01 12:42:00,
2013-01-01 06:47:00,2.8,-7.2,30.29,North,-999,-999.0,-999.0,62,0.00,,,0.00,meteohub,2013-01-01 12:47:00,
2013-01-01 06:52:00,2.8,-7.2,30.29,North,-999,-999.0,-999.0,62,0.00,,,0.00,meteohub,2013-01-01 12:52:00,
2013-01-01 06:57:00,2.8,-7.2,30.29,North,-999,-999.0,-999.0,62,0.00,,,0.00,meteohub,2013-01-01 12:57:00,
2013-01-01 07:07:00,2.8,-6.9,30.30,North,-999,-999.0,-999.0,63,0.00,,,0.00,meteohub,2013-01-01 13:07:00,
2013-01-01 07:12:00,2.7,-7.1,30.30,North,-999,-999.0,-999.0,63,0.00,,,0.00,meteohub,2013-01-01 13:12:00,
2013-01-01 07:17:00,2.7,-7.1,30.30,North,-999,-999.0,-999.0,63,0.00,,,0.00,meteohub,2013-01-01 13:17:00,
2013-01-01 07:22:00,2.7,-7.1,30.30,North,-999,-999.0,-999.0,63,0.00,,,0.00,meteohub,2013-01-01 13:22:00,
2013-01-01 07:27:00,2.7,-7.4,30.31,North,-999,-999.0,-999.0,62,0.00,,,0.00,meteohub,2013-01-01 13:27:00,
2013-01-01 07:37:00,2.7,-7.4,30.31,North,-999,-999.0,-999.0,62,0.00,,,0.00,meteohub,2013-01-01 13:37:00,
2013-01-01 07:42:00,2.7,-7.4,30.31,North,-999,-999.0,-999.0,62,0.00,,,0.00,meteohub,2013-01-01 13:42:00,
2013-01-01 07:47:00,2.7,-7.4,30.31,North,-999,-999.0,-999.0,62,0.00,,,0.00,meteohub,2013-01-01 13:47:00,
2013-01-01 07:52:00,2.7,-7.4,30.31,North,-999,-999.0,-999.0,62,0.00,,,0.00,meteohub,2013-01-01 13:52:00,
2013-01-01 07:57:00,2.8,-7.2,30.31,North,-999,-999.0,-999.0,62,0.00,,,0.00,meteohub,2013-01-01 13:57:00,
2013-01-01 08:02:00,3.0,-7.1,30.31,North,-999,-999.0,-999.0,62,0.00,,,0.00,meteohub,2013-01-01 14:02:00,
2013-01-01 08:07:00,3.2,-7.2,30.31,North,-999,-999.0,-999.0,61,0.00,,,0.00,meteohub,2013-01-01 14:07:00,
2013-01-01 08:12:00,3.6,-6.9,30.31,North,-999,-999.0,-999.0,61,0.00,,,0.00,meteohub,2013-01-01 14:12:00,
2013-01-01 08:17:00,3.6,-6.9,30.31,North,-999,-999.0,-999.0,61,0.00,,,0.00,meteohub,2013-01-01 14:17:00,
2013-01-01 08:22:00,4.1,-6.3,30.30,North,-999,-999.0,-999.0,61,0.00,,,0.00,meteohub,2013-01-01 14:22:00,
2013-01-01 08:27:00,4.3,-6.2,30.30,North,-999,-999.0,-999.0,61,0.00,,,0.00,meteohub,2013-01-01 14:27:00,
2013-01-01 08:32:00,5.2,-6.0,30.30,North,-999,-999.0,-999.0,59,0.00,,,0.00,meteohub,2013-01-01 14:32:00,
2013-01-01 08:37:00,5.7,-5.8,30.31,North,-999,-999.0,-999.0,58,0.00,,,0.00,meteohub,2013-01-01 14:37:00,
2013-01-01 08:42:00,6.1,-5.8,30.31,North,-999,-999.0,-999.0,57,0.00,,,0.00,meteohub,2013-01-01 14:42:00,
2013-01-01 08:47:00,6.3,-6.5,30.31,North,-999,-999.0,-999.0,55,0.00,,,0.00,meteohub,2013-01-01 14:47:00,
2013-01-01 08:52:00,6.4,-6.7,30.31,North,-999,-999.0,-999.0,54,0.00,,,0.00,meteohub,2013-01-01 14:52:00,
2013-01-01 08:57:00,6.1,-7.4,30.30,North,-999,-999.0,-999.0,53,0.00,,,0.00,meteohub,2013-01-01 14:57:00,
2013-01-01 09:02:00,6.4,-7.1,30.30,North,-999,-999.0,-999.0,53,0.00,,,0.00,meteohub,2013-01-01 15:02:00,
2013-01-01 09:07:00,7.2,-6.7,30.30,North,-999,-999.0,-999.0,52,0.00,,,0.00,meteohub,2013-01-01 15:07:00,
2013-01-01 09:12:00,8.1,-6.0,30.30,North,-999,-999.0,-999.0,52,0.00,,,0.00,meteohub,2013-01-01 15:12:00,
2013-01-01 09:17:00,9.0,-6.0,30.29,North,-999,-999.0,-999.0,50,0.00,,,0.00,meteohub,2013-01-01 15:17:00,
2013-01-01 09:22:00,9.1,-6.2,30.29,NW,315,0.0,-999.0,49,0.00,,,0.00,meteohub,2013-01-01 15:22:00,
2013-01-01 09:27:00,9.7,-6.2,30.29,North,-999,-999.0,0.0,48,0.00,,,0.00,meteohub,2013-01-01 15:27:00,
2013-01-01 09:32:00,9.9,-6.0,30.29,North,-999,-999.0,0.0,48,0.00,,,0.00,meteohub,2013-01-01 15:32:00,
2013-01-01 09:37:00,10.9,-3.3,30.28,North,-999,-999.0,0.0,52,0.00,,,0.00,meteohub,2013-01-01 15:37:00,
2013-01-01 09:42:00,11.3,-3.3,30.28,North,-999,-999.0,-999.0,51,0.00,,,0.00,meteohub,2013-01-01 15:42:00,
2013-01-01 09:47:00,10.8,-4.2,30.28,North,-999,-999.0,-999.0,50,0.00,,,0.00,meteohub,2013-01-01 15:47:00,
2013-01-01 09:52:00,11.3,-3.6,30.28,North,-999,-999.0,-999.0,50,0.00,,,0.00,meteohub,2013-01-01 15:52:00,
2013-01-01 09:57:00,11.5,-4.0,30.28,North,-999,-999.0,-999.0,49,0.00,,,0.00,meteohub,2013-01-01 15:57:00,
2013-01-01 10:02:00,11.5,-4.0,30.28,North,-999,-999.0,-999.0,49,0.00,,,0.00,meteohub,2013-01-01 16:02:00,
2013-01-01 10:07:00,13.1,-2.9,30.28,North,-999,-999.0,-999.0,48,0.00,,,0.00,meteohub,2013-01-01 16:07:00,
2013-01-01 10:12:00,11.8,-4.0,30.28,North,-999,-999.0,-999.0,48,0.00,,,0.00,meteohub,2013-01-01 16:12:00,
2013-01-01 10:17:00,12.0,-3.5,30.27,North,-999,-999.0,-999.0,49,0.00,,,0.00,meteohub,2013-01-01 16:17:00,
2013-01-01 10:22:00,13.1,-2.9,30.27,North,-999,-999.0,-999.0,48,0.00,,,0.00,meteohub,2013-01-01 16:22:00,
2013-01-01 10:27:00,13.8,-2.7,30.27,North,-999,-999.0,-999.0,47,0.00,,,0.00,meteohub,2013-01-01 16:27:00,
2013-01-01 10:32:00,13.8,-2.7,30.27,North,-999,-999.0,-999.0,47,0.00,,,0.00,meteohub,2013-01-01 16:32:00,
2013-01-01 10:37:00,14.2,-3.3,30.26,North,-999,-999.0,-999.0,45,0.00,,,0.00,meteohub,2013-01-01 16:37:00,
2013-01-01 10:42:00,14.7,-2.7,30.26,North,-999,-999.0,-999.0,45,0.00,,,0.00,meteohub,2013-01-01 16:42:00,
2013-01-01 10:47:00,14.4,-3.6,30.25,North,-999,-999.0,-999.0,44,0.00,,,0.00,meteohub,2013-01-01 16:47:00,
2013-01-01 10:52:00,14.7,-3.3,30.25,North,-999,-999.0,-999.0,44,0.00,,,0.00,meteohub,2013-01-01 16:52:00,
2013-01-01 10:57:00,15.1,-2.9,30.25,North,-999,-999.0,-999.0,44,0.00,,,0.00,meteohub,2013-01-01 16:57:00,
2013-01-01 11:02:00,15.1,-3.5,30.25,North,-999,-999.0,-999.0,43,0.00,,,0.00,meteohub,2013-01-01 17:02:00,
2013-01-01 11:07:00,16.0,-2.6,30.25,North,-999,-999.0,-999.0,43,0.00,,,0.00,meteohub,2013-01-01 17:07:00,
2013-01-01 11:12:00,16.7,-2.4,30.25,North,-999,-999.0,-999.0,42,0.00,,,0.00,meteohub,2013-01-01 17:12:00,
2013-01-01 11:17:00,16.2,-4.0,30.25,North,-999,-999.0,-999.0,40,0.00,,,0.00,meteohub,2013-01-01 17:17:00,
2013-01-01 11:22:00,16.0,-4.5,30.25,North,-999,-999.0,-999.0,39,0.00,,,0.00,meteohub,2013-01-01 17:22:00,
2013-01-01 11:27:00,17.2,-2.9,30.25,North,-999,-999.0,-999.0,40,0.00,,,0.00,meteohub,2013-01-01 17:27:00,
2013-01-01 11:32:00,16.9,-3.8,30.25,North,-999,-999.0,-999.0,39,0.00,,,0.00,meteohub,2013-01-01 17:32:00,
2013-01-01 11:37:00,17.1,-3.6,30.25,North,-999,-999.0,-999.0,39,0.00,,,0.00,meteohub,2013-01-01 17:37:00,
2013-01-01 11:42:00,17.6,-3.6,30.25,North,-999,-999.0,-999.0,38,0.00,,,0.00,meteohub,2013-01-01 17:42:00,
2013-01-01 11:47:00,16.5,-4.7,30.25,North,-999,-999.0,-999.0,38,0.00,,,0.00,meteohub,2013-01-01 17:47:00,
2013-01-01 11:52:00,16.5,-4.2,30.25,North,-999,-999.0,-999.0,39,0.00,,,0.00,meteohub,2013-01-01 17:52:00,
2013-01-01 11:57:00,16.9,-3.8,30.24,North,-999,-999.0,-999.0,39,0.00,,,0.00,meteohub,2013-01-01 17:57:00,
2013-01-01 12:02:00,18.7,-2.7,30.24,North,-999,-999.0,-999.0,38,0.00,,,0.00,meteohub,2013-01-01 18:02:00,
2013-01-01 12:07:00,17.6,-5.4,30.24,North,-999,-999.0,-999.0,35,0.00,,,0.00,meteohub,2013-01-01 18:07:00,
2013-01-01 12:12:00,17.2,-5.1,30.23,North,-999,-999.0,-999.0,36,0.00,,,0.00,meteohub,2013-01-01 18:12:00,
2013-01-01 12:17:00,18.0,-5.1,30.23,North,-999,-999.0,-999.0,35,0.00,,,0.00,meteohub,2013-01-01 18:17:00,
2013-01-01 12:22:00,16.9,-6.7,30.23,North,-999,-999.0,-999.0,34,0.00,,,0.00,meteohub,2013-01-01 18:22:00,
2013-01-01 12:27:00,17.2,-5.1,30.23,North,-999,-999.0,-999.0,36,0.00,,,0.00,meteohub,2013-01-01 18:27:00,
2013-01-01 12:32:00,16.9,-6.0,30.24,North,-999,-999.0,-999.0,35,0.00,,,0.00,meteohub,2013-01-01 18:32:00,
2013-01-01 12:37:00,17.2,-5.1,30.24,North,-999,-999.0,-999.0,36,0.00,,,0.00,meteohub,2013-01-01 18:37:00,
2013-01-01 12:42:00,18.3,-4.2,30.24,North,-999,-999.0,-999.0,36,0.00,,,0.00,meteohub,2013-01-01 18:42:00,
2013-01-01 12:47:00,18.3,-5.4,30.23,North,-999,-999.0,-999.0,34,0.00,,,0.00,meteohub,2013-01-01 18:47:00,
2013-01-01 12:52:00,17.2,-6.3,30.24,North,-999,-999.0,-999.0,34,0.00,,,0.00,meteohub,2013-01-01 18:52:00,
2013-01-01 12:57:00,17.1,-5.8,30.24,NW,315,0.0,0.0,35,0.00,,,0.00,meteohub,2013-01-01 18:57:00,
2013-01-01 13:02:00,17.4,-5.6,30.23,North,-999,-999.0,0.0,35,0.00,,,0.00,meteohub,2013-01-01 19:02:00,
2013-01-01 13:07:00,17.6,-6.0,30.24,North,-999,-999.0,0.0,34,0.00,,,0.00,meteohub,2013-01-01 19:07:00,
2013-01-01 13:12:00,18.7,-4.4,30.23,North,-999,-999.0,-999.0,35,0.00,,,0.00,meteohub,2013-01-01 19:12:00,
2013-01-01 13:17:00,18.3,-6.0,30.23,North,-999,-999.0,-999.0,33,0.00,,,0.00,meteohub,2013-01-01 19:17:00,
2013-01-01 13:22:00,17.2,-6.9,30.23,North,-999,-999.0,-999.0,33,0.00,,,0.00,meteohub,2013-01-01 19:22:00,
2013-01-01 13:27:00,17.4,-5.6,30.23,North,-999,-999.0,-999.0,35,0.00,,,0.00,meteohub,2013-01-01 19:27:00,
2013-01-01 13:32:00,17.4,-5.6,30.23,North,-999,-999.0,-999.0,35,0.00,,,0.00,meteohub,2013-01-01 19:32:00,
2013-01-01 13:37:00,17.1,-5.8,30.23,North,-999,-999.0,-999.0,35,0.00,,,0.00,meteohub,2013-01-01 19:37:00,
2013-01-01 13:42:00,16.9,-6.0,30.23,North,-999,-999.0,-999.0,35,0.00,,,0.00,meteohub,2013-01-01 19:42:00,
2013-01-01 13:47:00,17.2,-5.1,30.23,North,-999,-999.0,-999.0,36,0.00,,,0.00,meteohub,2013-01-01 19:47:00,
2013-01-01 13:52:00,17.1,-5.8,30.22,North,-999,-999.0,-999.0,35,0.00,,,0.00,meteohub,2013-01-01 19:52:00,
2013-01-01 13:57:00,16.5,-6.3,30.23,North,-999,-999.0,-999.0,35,0.00,,,0.00,meteohub,2013-01-01 19:57:00,
2013-01-01 14:02:00,16.9,-5.4,30.22,North,-999,-999.0,-999.0,36,0.00,,,0.00,meteohub,2013-01-01 20:02:00,
2013-01-01 14:07:00,17.1,-5.3,30.22,North,-999,-999.0,-999.0,36,0.00,,,0.00,meteohub,2013-01-01 20:07:00,
2013-01-01 14:12:00,16.7,-6.9,30.22,North,-999,-999.0,-999.0,34,0.00,,,0.00,meteohub,2013-01-01 20:12:00,
2013-01-01 14:17:00,16.3,-7.1,30.22,North,-999,-999.0,-999.0,34,0.00,,,0.00,meteohub,2013-01-01 20:17:00,
2013-01-01 14:22:00,16.3,-6.5,30.23,North,-999,-999.0,-999.0,35,0.00,,,0.00,meteohub,2013-01-01 20:22:00,
2013-01-01 14:27:00,16.9,-5.4,30.22,North,-999,-999.0,-999.0,36,0.00,,,0.00,meteohub,2013-01-01 20:27:00,
2013-01-01 14:32:00,16.2,-6.7,30.23,North,-999,-999.0,-999.0,35,0.00,,,0.00,meteohub,2013-01-01 20:32:00,
2013-01-01 14:37:00,16.5,-6.3,30.22,North,-999,-999.0,-999.0,35,0.00,,,0.00,meteohub,2013-01-01 20:37:00,
2013-01-01 14:42:00,16.2,-6.7,30.22,North,-999,-999.0,-999.0,35,0.00,,,0.00,meteohub,2013-01-01 20:42:00,
2013-01-01 14:47:00,15.6,-6.5,30.22,North,-999,-999.0,-999.0,36,0.00,,,0.00,meteohub,2013-01-01 20:47:00,
2013-01-01 14:52:00,15.6,-6.0,30.23,North,-999,-999.0,-999.0,37,0.00,,,0.00,meteohub,2013-01-01 20:52:00,
2013-01-01 14:57:00,15.6,-5.4,30.22,North,-999,-999.0,-999.0,38,0.00,,,0.00,meteohub,2013-01-01 20:57:00,
2013-01-01 15:02:00,16.0,-5.1,30.22,North,-999,-999.0,-999.0,38,0.00,,,0.00,meteohub,2013-01-01 21:02:00,
2013-01-01 15:07:00,15.8,-5.3,30.22,North,-999,-999.0,-999.0,38,0.00,,,0.00,meteohub,2013-01-01 21:07:00,
2013-01-01 15:12:00,15.6,-4.9,30.22,North,-999,-999.0,-999.0,39,0.00,,,0.00,meteohub,2013-01-01 21:12:00,
2013-01-01 15:17:00,15.4,-6.2,30.22,North,-999,-999.0,-999.0,37,0.00,,,0.00,meteohub,2013-01-01 21:17:00,
2013-01-01 15:22:00,15.4,-7.4,30.22,North,-999,-999.0,-999.0,35,0.00,,,0.00,meteohub,2013-01-01 21:22:00,
2013-01-01 15:27:00,14.9,-8.5,30.22,North,-999,-999.0,-999.0,34,0.00,,,0.00,meteohub,2013-01-01 21:27:00,
2013-01-01 15:32:00,14.0,-9.8,30.22,North,-999,-999.0,-999.0,33,0.00,,,0.00,meteohub,2013-01-01 21:32:00,
2013-01-01 15:37:00,14.0,-8.7,30.22,North,-999,-999.0,-999.0,35,0.00,,,0.00,meteohub,2013-01-01 21:37:00,
2013-01-01 15:42:00,14.4,-7.2,30.22,North,-999,-999.0,-999.0,37,0.00,,,0.00,meteohub,2013-01-01 21:42:00,
2013-01-01 15:47:00,14.0,-6.9,30.22,North,-999,-999.0,-999.0,38,0.00,,,0.00,meteohub,2013-01-01 21:47:00,
2013-01-01 15:52:00,13.5,-6.9,30.22,North,-999,-999.0,-999.0,39,0.00,,,0.00,meteohub,2013-01-01 21:52:00,
2013-01-01 15:57:00,13.1,-7.2,30.22,North,-999,-999.0,-999.0,39,0.00,,,0.00,meteohub,2013-01-01 21:57:00,
2013-01-01 16:02:00,12.9,-6.9,30.22,North,-999,-999.0,-999.0,40,0.00,,,0.00,meteohub,2013-01-01 22:02:00,
2013-01-01 16:07:00,12.7,-6.5,30.22,North,-999,-999.0,-999.0,41,0.00,,,0.00,meteohub,2013-01-01 22:07:00,
2013-01-01 16:12:00,12.6,-6.7,30.22,North,-999,-999.0,-999.0,41,0.00,,,0.00,meteohub,2013-01-01 22:12:00,
2013-01-01 16:17:00,12.4,-6.9,30.22,North,-999,-999.0,-999.0,41,0.00,,,0.00,meteohub,2013-01-01 22:17:00,
2013-01-01 16:22:00,12.2,-7.1,30.22,North,-999,-999.0,-999.0,41,0.00,,,0.00,meteohub,2013-01-01 22:22:00,
2013-01-01 16:27:00,11.8,-6.9,30.23,North,-999,-999.0,-999.0,42,0.00,,,0.00,meteohub,2013-01-01 22:27:00,
2013-01-01 16:32:00,11.7,-6.5,30.23,North,-999,-999.0,-999.0,43,0.00,,,0.00,meteohub,2013-01-01 22:32:00,
2013-01-01 16:37:00,11.5,-6.7,30.22,North,-999,-999.0,-999.0,43,0.00,,,0.00,meteohub,2013-01-01 22:37:00,
2013-01-01 16:42:00,11.5,-6.7,30.23,North,-999,-999.0,-999.0,43,0.00,,,0.00,meteohub,2013-01-01 22:42:00,
2013-01-01 16:47:00,11.3,-6.3,30.23,North,-999,-999.0,-999.0,44,0.00,,,0.00,meteohub,2013-01-01 22:47:00,
2013-01-01 16:52:00,11.1,-6.5,30.23,North,-999,-999.0,-999.0,44,0.00,,,0.00,meteohub,2013-01-01 22:52:00,
2013-01-01 16:57:00,10.9,-6.7,30.23,North,-999,-999.0,-999.0,44,0.00,,,0.00,meteohub,2013-01-01 22:57:00,
2013-01-01 17:02:00,10.9,-6.7,30.23,North,-999,-999.0,-999.0,44,0.00,,,0.00,meteohub,2013-01-01 23:02:00,
2013-01-01 17:07:00,10.8,-6.9,30.23,North,-999,-999.0,-999.0,44,0.00,,,0.00,meteohub,2013-01-01 23:07:00,
2013-01-01 17:12:00,10.6,-7.1,30.23,North,-999,-999.0,-999.0,44,0.00,,,0.00,meteohub,2013-01-01 23:12:00,
2013-01-01 17:17:00,10.0,-9.4,30.23,North,-999,-999.0,-999.0,40,0.00,,,0.00,meteohub,2013-01-01 23:17:00,
2013-01-01 17:22:00,10.0,-8.5,30.23,North,-999,-999.0,-999.0,42,0.00,,,0.00,meteohub,2013-01-01 23:22:00,
2013-01-01 17:27:00,9.7,-8.3,30.23,North,-999,-999.0,-999.0,43,0.00,,,0.00,meteohub,2013-01-01 23:27:00,
2013-01-01 17:32:00,9.5,-8.5,30.23,North,-999,-999.0,-999.0,43,0.00,,,0.00,meteohub,2013-01-01 23:32:00,
2013-01-01 17:37:00,9.3,-8.7,30.23,North,-999,-999.0,-999.0,43,0.00,,,0.00,meteohub,2013-01-01 23:37:00,
2013-01-01 17:42:00,9.0,-8.5,30.23,North,-999,-999.0,-999.0,44,0.00,,,0.00,meteohub,2013-01-01 23:42:00,
2013-01-01 17:47:00,8.8,-8.7,30.23,North,-999,-999.0,-999.0,44,0.00,,,0.00,meteohub,2013-01-01 23:47:00,
2013-01-01 17:52:00,8.8,-8.7,30.23,North,-999,-999.0,-999.0,44,0.00,,,0.00,meteohub,2013-01-01 23:52:00,
2013-01-01 17:57:00,8.6,-8.3,30.23,North,-999,-999.0,-999.0,45,0.00,,,0.00,meteohub,2013-01-01 23:57:00,
2013-01-01 18:02:00,8.4,-8.1,30.23,North,-999,-999.0,-999.0,46,0.00,,,0.00,meteohub,2013-01-02 00:02:00,
2013-01-01 18:07:00,8.4,-8.1,30.23,North,-999,-999.0,-999.0,46,0.00,,,0.00,meteohub,2013-01-02 00:07:00,
2013-01-01 18:12:00,8.2,-7.8,30.23,North,-999,-999.0,-999.0,47,0.00,,,0.00,meteohub,2013-01-02 00:12:00,
2013-01-01 18:17:00,8.2,-7.8,30.23,North,-999,-999.0,-999.0,47,0.00,,,0.00,meteohub,2013-01-02 00:17:00,
2013-01-01 18:22:00,8.2,-7.4,30.23,North,-999,-999.0,-999.0,48,0.00,,,0.00,meteohub,2013-01-02 00:22:00,
2013-01-01 18:27:00,8.2,-7.1,30.23,North,-999,-999.0,-999.0,49,0.00,,,0.00,meteohub,2013-01-02 00:27:00,
2013-01-01 18:32:00,8.2,-7.1,30.24,North,-999,-999.0,-999.0,49,0.00,,,0.00,meteohub,2013-01-02 00:32:00,
2013-01-01 18:37:00,8.2,-7.1,30.24,North,-999,-999.0,-999.0,49,0.00,,,0.00,meteohub,2013-01-02 00:37:00,
2013-01-01 18:42:00,8.1,-7.2,30.23,North,-999,-999.0,-999.0,49,0.00,,,0.00,meteohub,2013-01-02 00:42:00,
2013-01-01 18:47:00,7.9,-7.2,30.24,North,-999,-999.0,-999.0,49,0.00,,,0.00,meteohub,2013-01-02 00:47:00,
2013-01-01 18:52:00,7.7,-7.1,30.24,North,-999,-999.0,-999.0,50,0.00,,,0.00,meteohub,2013-01-02 00:52:00,
2013-01-01 18:57:00,7.7,-7.1,30.25,North,-999,-999.0,-999.0,50,0.00,,,0.00,meteohub,2013-01-02 00:57:00,
2013-01-01 19:02:00,7.7,-7.1,30.24,North,-999,-999.0,-999.0,50,0.00,,,0.00,meteohub,2013-01-02 01:02:00,
2013-01-01 19:07:00,7.5,-7.2,30.24,North,-999,-999.0,-999.0,50,0.00,,,0.00,meteohub,2013-01-02 01:07:00,
2013-01-01 19:12:00,7.5,-7.2,30.24,North,-999,-999.0,-999.0,50,0.00,,,0.00,meteohub,2013-01-02 01:12:00,
2013-01-01 19:17:00,7.3,-7.4,30.24,North,-999,-999.0,-999.0,50,0.00,,,0.00,meteohub,2013-01-02 01:17:00,
2013-01-01 19:22:00,7.3,-7.1,30.24,North,-999,-999.0,-999.0,51,0.00,,,0.00,meteohub,2013-01-02 01:22:00,
2013-01-01 19:27:00,7.2,-7.2,30.24,North,-999,-999.0,-999.0,51,0.00,,,0.00,meteohub,2013-01-02 01:27:00,
2013-01-01 19:32:00,7.2,-7.2,30.24,North,-999,-999.0,-999.0,51,0.00,,,0.00,meteohub,2013-01-02 01:32:00,
2013-01-01 19:37:00,7.2,-6.7,30.24,North,-999,-999.0,-999.0,52,0.00,,,0.00,meteohub,2013-01-02 01:37:00,
2013-01-01 19:42:00,7.2,-6.7,30.24,North,-999,-999.0,-999.0,52,0.00,,,0.00,meteohub,2013-01-02 01:42:00,
2013-01-01 19:47:00,7.0,-6.9,30.24,North,-999,-999.0,-999.0,52,0.00,,,0.00,meteohub,2013-01-02 01:47:00,
2013-01-01 19:52:00,7.0,-6.9,30.24,North,-999,-999.0,-999.0,52,0.00,,,0.00,meteohub,2013-01-02 01:52:00,
2013-01-01 19:57:00,7.0,-6.5,30.23,North,-999,-999.0,-999.0,53,0.00,,,0.00,meteohub,2013-01-02 01:57:00,
2013-01-01 20:02:00,7.0,-6.5,30.23,North,-999,-999.0,-999.0,53,0.00,,,0.00,meteohub,2013-01-02 02:02:00,
2013-01-01 20:07:00,7.0,-6.5,30.22,North,-999,-999.0,-999.0,53,0.00,,,0.00,meteohub,2013-01-02 02:07:00,
2013-01-01 20:12:00,7.2,-6.3,30.22,North,-999,-999.0,-999.0,53,0.00,,,0.00,meteohub,2013-01-02 02:12:00,
2013-01-01 20:17:00,7.2,-6.3,30.23,North,-999,-999.0,-999.0,53,0.00,,,0.00,meteohub,2013-01-02 02:17:00,
2013-01-01 20:22:00,7.3,-5.8,30.22,North,-999,-999.0,-999.0,54,0.00,,,0.00,meteohub,2013-01-02 02:22:00,
2013-01-01 20:27:00,7.3,-5.8,30.22,North,-999,-999.0,-999.0,54,0.00,,,0.00,meteohub,2013-01-02 02:27:00,
2013-01-01 20:32:00,7.3,-6.2,30.22,North,-999,-999.0,-999.0,53,0.00,,,0.00,meteohub,2013-01-02 02:32:00,
2013-01-01 20:37:00,7.3,-6.2,30.22,North,-999,-999.0,-999.0,53,0.00,,,0.00,meteohub,2013-01-02 02:37:00,
2013-01-01 20:42:00,7.5,-6.0,30.22,North,-999,-999.0,-999.0,53,0.00,,,0.00,meteohub,2013-01-02 02:42:00,
2013-01-01 20:47:00,7.5,-6.0,30.22,North,-999,-999.0,-999.0,53,0.00,,,0.00,meteohub,2013-01-02 02:47:00,
2013-01-01 20:52:00,7.7,-5.8,30.22,North,-999,-999.0,-999.0,53,0.00,,,0.00,meteohub,2013-01-02 02:52:00,
2013-01-01 20:57:00,7.7,-5.8,30.21,North,-999,-999.0,-999.0,53,0.00,,,0.00,meteohub,2013-01-02 02:57:00,
2013-01-01 21:02:00,7.9,-6.2,30.22,North,-999,-999.0,-999.0,52,0.00,,,0.00,meteohub,2013-01-02 03:02:00,
2013-01-01 21:07:00,8.1,-6.0,30.22,North,-999,-999.0,-999.0,52,0.00,,,0.00,meteohub,2013-01-02 03:07:00,
2013-01-01 21:12:00,8.1,-6.3,30.21,NW,315,0.0,-999.0,51,0.00,,,0.00,meteohub,2013-01-02 03:12:00,
2013-01-01 21:17:00,8.1,-6.3,30.22,North,-999,-999.0,0.0,51,0.00,,,0.00,meteohub,2013-01-02 03:17:00,
2013-01-01 21:22:00,8.1,-6.3,30.22,North,-999,-999.0,0.0,51,0.00,,,0.00,meteohub,2013-01-02 03:22:00,
2013-01-01 21:27:00,7.9,-6.5,30.21,North,-999,-999.0,0.0,51,0.00,,,0.00,meteohub,2013-01-02 03:27:00,
2013-01-01 21:32:00,7.7,-6.7,30.21,North,-999,-999.0,-999.0,51,0.00,,,0.00,meteohub,2013-01-02 03:32:00,
2013-01-01 21:37:00,7.7,-6.7,30.21,North,-999,-999.0,-999.0,51,0.00,,,0.00,meteohub,2013-01-02 03:37:00,
2013-01-01 21:47:00,7.3,-7.1,30.21,North,-999,-999.0,-999.0,51,0.00,,,0.00,meteohub,2013-01-02 03:47:00,
2013-01-01 21:52:00,7.2,-7.2,30.21,North,-999,-999.0,-999.0,51,0.00,,,0.00,meteohub,2013-01-02 03:52:00,
2013-01-01 21:57:00,7.0,-7.4,30.21,North,-999,-999.0,-999.0,51,0.00,,,0.00,meteohub,2013-01-02 03:57:00,
2013-01-01 22:02:00,6.8,-7.4,30.21,North,-999,-999.0,-999.0,51,0.00,,,0.00,meteohub,2013-01-02 04:02:00,
2013-01-01 22:07:00,6.8,-7.4,30.21,North,-999,-999.0,-999.0,51,0.00,,,0.00,meteohub,2013-01-02 04:07:00,
2013-01-01 22:12:00,6.6,-7.2,30.22,North,-999,-999.0,-999.0,52,0.00,,,0.00,meteohub,2013-01-02 04:12:00,
2013-01-01 22:17:00,6.4,-7.1,30.22,North,-999,-999.0,-999.0,53,0.00,,,0.00,meteohub,2013-01-02 04:17:00,
2013-01-01 22:22:00,6.4,-7.1,30.22,North,-999,-999.0,-999.0,53,0.00,,,0.00,meteohub,2013-01-02 04:22:00,
2013-01-01 22:27:00,6.4,-7.1,30.21,North,-999,-999.0,-999.0,53,0.00,,,0.00,meteohub,2013-01-02 04:27:00,
2013-01-01 22:32:00,6.3,-7.2,30.21,North,-999,-999.0,-999.0,53,0.00,,,0.00,meteohub,2013-01-02 04:32:00,
2013-01-01 22:37:00,6.3,-7.2,30.22,North,-999,-999.0,-999.0,53,0.00,,,0.00,meteohub,2013-01-02 04:37:00,
2013-01-01 22:42:00,6.3,-7.2,30.22,North,-999,-999.0,-999.0,53,0.00,,,0.00,meteohub,2013-01-02 04:42:00,
2013-01-01 22:47:00,6.1,-7.4,30.22,North,-999,-999.0,-999.0,53,0.00,,,0.00,meteohub,2013-01-02 04:47:00,
2013-01-01 22:52:00,5.9,-7.2,30.22,North,-999,-999.0,-999.0,54,0.00,,,0.00,meteohub,2013-01-02 04:52:00,
2013-01-01 22:57:00,5.7,-7.4,30.22,North,-999,-999.0,-999.0,54,0.00,,,0.00,meteohub,2013-01-02 04:57:00,
2013-01-01 23:02:00,5.5,-7.4,30.22,North,-999,-999.0,-999.0,54,0.00,,,0.00,meteohub,2013-01-02 05:02:00,
2013-01-01 23:07:00,5.4,-7.6,30.22,North,-999,-999.0,-999.0,54,0.00,,,0.00,meteohub,2013-01-02 05:07:00,
2013-01-01 23:12:00,5.2,-7.8,30.22,North,-999,-999.0,-999.0,54,0.00,,,0.00,meteohub,2013-01-02 05:12:00,
2013-01-01 23:17:00,5.0,-8.0,30.22,North,-999,-999.0,-999.0,54,0.00,,,0.00,meteohub,2013-01-02 05:17:00,
2013-01-01 23:22:00,5.0,-7.6,30.21,North,-999,-999.0,-999.0,55,0.00,,,0.00,meteohub,2013-01-02 05:22:00,
2013-01-01 23:27:00,5.0,-7.6,30.21,North,-999,-999.0,-999.0,55,0.00,,,0.00,meteohub,2013-01-02 05:27:00,
2013-01-01 23:32:00,4.8,-7.4,30.21,North,-999,-999.0,-999.0,56,0.00,,,0.00,meteohub,2013-01-02 05:32:00,
2013-01-01 23:37:00,4.6,-7.2,30.21,North,-999,-999.0,-999.0,57,0.00,,,0.00,meteohub,2013-01-02 05:37:00,
2013-01-01 23:42:00,4.5,-7.4,30.22,North,-999,-999.0,-999.0,57,0.00,,,0.00,meteohub,2013-01-02 05:42:00,
2013-01-01 23:47:00,4.5,-7.4,30.22,North,-999,-999.0,-999.0,57,0.00,,,0.00,meteohub,2013-01-02 05:47:00,
2013-01-01 23:52:00,4.3,-7.2,30.22,North,-999,-999.0,-999.0,58,0.00,,,0.00,meteohub,2013-01-02 05:52:00,
2013-01-01 23:57:00,4.6,-6.9,30.22,North,-999,-999.0,-999.0,58,0.00,,,0.00,meteohub,2013-01-02 05:57:00,